Location: ??????
(38.3184°N, 23.6932°E)
Time: 01:48:49
(UTC+00:00)

CZ-2C R/B - Pass Details

Date: 16 October 2021
Orbit: 784 x 871 km, 98.2° (Epoch: 04 December)

Event Time Altitude Azimuth Distance (km) Brightness Sun altitude
Rises 16:08:55 0° 19° (NNE) 3,466 5.6 -5.3°
Reaches altitude 10° 16:11:26 10° 25° (NNE) 2,522 4.9 -5.8°
Maximum altitude 16:16:48 46° 98° (E) 1,147 3.0 -6.8°
Drops below altitude 10° 16:22:05 10° 171° (S) 2,474 5.1 -7.9°
Sets 16:24:31 0° 178° (S) 3,394 5.9 -8.3°
